Lid_Strength_Index
3 3 2 2 1 1 1 1 1 1 1 1 1 2 2 2 1 1 2 2 2 3 2 3 1 1 1 1 1 1 2 2 4 3 3 4 6 6 8 7 8 8 8
4 4 4 3 2 1 1 1 1 1 1 1 1 2 2 2 2 2 2 2 3 3 3 3 2 1 2 1 2 3 3 2 3 5 6 7 8 9 9 10 9 9 9
3 3 3 3 3 2 1 1 1 1 1 1 1 2 2 3 3 3 3 3 3 3 3 4 2 2 2 2 2 3 3 3 3 5 7 11 12 12 13 12 11 11 10
3 3 3 3 3 2 1 1 1 1 1 1 1 2 2 3 4 3 3 3 3 3 4 4 2 2 3 3 3 3 4 4 6 10 13 13 13 14 14 13 13 13 12
3 3 3 3 3 2 1 1 1 1 2 1 2 2 2 3 4 4 4 3 4 4 5 4 3 5 8 5 4 5 6 8 12 12 14 14 14 15 14 13 13 14 13
3 3 4 3 2 2 2 2 2 2 2 2 2 2 3 4 7 8 5 4 5 6 6 6 7 11 10 10 10 9 7 9 12 12 13 13 13 14 13 14 14 14 13
3 4 4 4 3 2 2 3 4 3 3 3 3 3 4 5 10 9 9 5 5 6 7 8 12 12 12 11 11 11 11 9 9 10 12 12 13 12 13 14 14 13 13
5 5 5 5 3 3 5 5 5 4 4 4 4 4 5 8 10 10 11 7 8 9 10 11 12 12 13 12 12 13 14 11 11 11 11 12 12 12 12 12 13 13 14
8 7 7 7 7 7 7 5 7 9 9 7 8 9 9 12 11 11 10 12 14 14 13 11 11 12 12 12 13 14 13 13 10 10 11 11 10 11 12 12 13 13 14
8 9 9 9 9 8 8 10 13 11 13 13 14 13 13 13 12 12 12 13 14 15 15 15 14 13 12 12 12 12 12 14 13 14 14 13 13 12 11 13 13 13 14
11 12 12 12 12 12 13 14 13 14 14 14 14 14 14 13 12 12 12 13 13 15 15 15 14 12 11 11 11 12 12 13 13 14 15 14 13 13 13 13 13 13 13
13 13 13 14 14 14 14 13 14 14 14 15 15 15 15 15 13 12 12 12 12 14 14 14 13 11 10 10 11 10 11 12 14 15 14 14 13 13 13 13 13 13 14
13 14 14 14 14 14 14 13 13 13 14 15 15 15 16 15 14 13 13 13 13 14 14 13 11 10 10 10 10 12 14 14 14 14 14 14 14 14 14 14 15 16 16
14 14 14 14 14 14 14 14 14 14 14 15 15 16 15 15 14 14 14 14 14 13 12 12 12 12 11 12 13 13 14 14 14 14 15 14 14 14 15 15 15 15 16
14 15 14 14 14 14 15 14 14 14 14 15 15 15 15 16 15 14 13 13 13 12 13 13 13 13 14 15 15 15 15 14 15 14 14 15 15 15 15 15 15 15 17
14 14 14 14 14 14 14 15 12 13 13 13 13 14 14 13 11 11 11 11 11 11 13 14 15 15 15 15 16 16 15 14 14 15 15 15 16 16 16 15 15 16 17
14 15 14 15 15 14 14 14 15 13 11 11 11 11 11 11 11 11 11 11 11 12 14 14 15 15 16 16 15 15 16 16 16 16 16 15 16 16 16 16 16 16 16
14 14 14 14 14 14 14 14 14 15 16 15 12 12 11 11 11 11 12 14 16 15 15 16 17 17 17 17 17 17 17 17 17 17 17 17 17 17 17 17 17 17 17
15 15 14 14 14 15 16 17 17 18 19 20 19 19 17 15 16 16 16 18 19 20 20 19 19 19 19 20 20 20 20 21 21 20 20 21 21 22 22 21 21 20 19
16 16 16 16 17 17 18 18 19 19 20 21 22 23 22 20 22 22 21 21 21 21 21 21 21 22 22 22 22 22 22 23 23 23 23 23 24 24 24 25 24 24 24
18 18 17 18 18 19 19 20 21 21 22 23 23 21 20 23 23 23 23 23 23 22 22 22 23 24 24 24 23 24 25 25 26 25 26 26 27 27 26 25 25 26 26
20 20 20 20 20 21 21 22 22 23 23 24 24 22 21 24 24 24 25 25 25 25 24 24 24 25 25 25 25 25 26 27 27 27 27 28 28 27 27 27 28 27 27
22 22 22 22 22 22 23 23 24 24 25 25 25 25 25 25 25 25 26 26 26 26 26 25 26 26 27 28 27 27 28 29 29 29 29 29 29 29 29 29 29 30 30
22 23 23 23 23 24 24 25 25 25 25 25 25 25 26 26 26 26 26 26 26 27 27 27 27 27 29 29 29 30 30 31 31 31 31 31 31 29 30 30 30 30 29
23 23 23 24 24 25 25 25 26 26 26 26 26 26 26 26 27 26 27 27 27 27 28 28 28 29 30 32 32 32 30 29 32 30 32 32 32 32 32 32 31 31 31
24 24 24 24 24 25 25 25 26 26 26 26 26 27 27 27 27 27 27 28 28 28 28 28 28 30 30 31 32 31 28 27 30 30 32 31 30 30 30 30 31 31 30